Погода в Атафу

Токелау     11°03′10″S   171°05′07″W
темп.,
°C
ветер,
м/с
пор.,
м/с
влажн.,
%
обл.,
%
осадки,
мм/ч
давл.,
гПа
погр.,
м
10 августа, ср
ср1001:00+27в45772 2.8 1012514
04:00+26в55770 2.9 1010606
07:00+27в56775 5.0 1012633
10:00+27в557611 0.6 1013814
13:00+27всв55758 0.8 1011839
16:00+27в557511 0.3 1009867
19:00+27в56756 0.5 1011873
22:00+27в66753 1.4 1012867
11 августа, чт
чт1101:00+27в67779 1.8 1011805
04:00+27в66765 0.3 1010854
07:00+27в777693 0.4 1011878
10:00+27в67765 0.1 1013875
13:00+27всв66755 0.3 1011765
16:00+27всв67765 1.3 1009728
19:00+27всв777833 2.1 1011801
22:00+27всв67808 0.6 1012703
12 августа, пт
пт1201:00+27св66786 0.8 1011746
04:00+26св57815 3.1 1011581
07:00+27св777310 4.5 1012997
10:00+28св67705 0.0 1014958
13:00+28св67690 0.0 1012978
16:00+28св567112 0.0 1010953
19:00+27всв66805 2.9 1012540
22:00+28всв787412 4.4 1013939
13 августа, сб
сб1301:00+27всв77710 4.4 10121014
04:00+27всв677178 0.0 10111169
07:00+28всв666918 0.1 10121105
10:00+27в677614 0.1 1014851
13:00+27в667712 0.6 1012849
16:00+28в56765 0.1 1011849
19:00+27в667613 0.3 1012804
22:00+27в66777 0.8 1014796
14 августа, вс
вс1401:00+27в667810 1.6 1012812
04:00+27в67788 0.7 1011774
07:00+27вюв777714 1.5 1012875
10:00+27в787610 1.0 1014872
13:00+28в77715 1.1 1012997
16:00+28вюв77736 0.0 1010980
19:00+28вюв78773 0.1 1011919
22:00+27вюв78776 0.8 1013893